Fort Eustis, VA

9:54 PM EDT on April 26, 2017 (GMT -0400)
Felker Army Air Field

Weather History for KFAF - September, 2013

Change the Weather History Date:

Wednesday, September 4, 2013

  Actual Average Record
Temperature  
Mean Temperature 75 °F -  
Max Temperature 81 °F 81 °F 93 °F (2002)
Min Temperature 69 °F 67 °F 57 °F (1997)
Cooling Degree Days 10    
Growing Degree Days 25 (Base 50)    
Moisture  
Dew Point 63 °F    
Average Humidity 70    
Maximum Humidity 90    
Minimum Humidity 55    
Precipitation  
Precipitation 0.00 in - - ()
Sea Level Pressure  
Sea Level Pressure 30.04 in    
Wind  
Wind Speed 5 mph (North)    
Max Wind Speed 8 mph    
Max Gust Speed -    
Visibility 10 miles    
Events      
Averages and records for this station are not official NWS values.
T = Trace of Precipitation, MM = Missing Value Source: NWS Daily Summary

Daily Weather History Graph

Daily Weather History Graph

Search for Another Location

Airport or City:

Trip Planner

Search our weather history database for the weather conditions in past years. The results will help you decide how hot, cold, wet, or windy it might be!

Date:

Astronomy

Sep. 04, 2013 Rise Set
Actual Time 6:39 AM EDT 7:30 PM EDT
Civil Twilight 6:13 AM EDT 7:56 PM EDT
Nautical Twilight 5:41 AM EDT 8:27 PM EDT
Astronomical Twilight 5:09 AM EDT 9:00 PM EDT
Moon 5:49 AM EDT (9/4) 6:49 PM EDT (9/4)
Length of Visible Light 13h 43m
Length of Day
12h 50m
Waning Crescent, 1% of the Moon is Illuminated
Sep 4
Waning Crescent
Sep 5
New
Sep 12
First Quarter
Sep 19
Full
Sep 26
Last Quarter

Hourly Weather History & Observations

Time (EDT) Temp. Heat Index Dew Point Humidity Pressure Visibility Wind Dir Wind Speed Gust Speed Precip Events Conditions
12:58 AM 72.1 °F - 68.5 °F 88% 29.95 in 10.0 mi WNW 3.5 mph - N/A   Partly Cloudy
1:58 AM 73.8 °F - 70.5 °F 90% 29.95 in 10.0 mi Variable 5.8 mph - N/A   Clear
2:58 AM 72.5 °F - 64.0 °F 75% 29.97 in 10.0 mi North 6.9 mph - N/A   Mostly Cloudy
3:58 AM 71.2 °F - 61.9 °F 72% 29.98 in 10.0 mi NNE 6.9 mph - N/A   Clear
4:58 AM 70.2 °F - 62.1 °F 75% 29.99 in 10.0 mi North 8.1 mph - N/A   Mostly Cloudy
5:58 AM 70.2 °F - 59.2 °F 68% 30.01 in 10.0 mi North 5.8 mph - N/A   Overcast
6:58 AM 69.8 °F - 58.6 °F 68% 30.03 in 10.0 mi North 6.9 mph - N/A   Overcast
7:58 AM 69.6 °F - 58.5 °F 68% 30.06 in 10.0 mi North 5.8 mph - N/A   Overcast
8:58 AM 70.9 °F - 59.0 °F 66% 30.07 in 10.0 mi North 6.9 mph - N/A   Mostly Cloudy
9:58 AM 73.0 °F - 59.7 °F 63% 30.08 in 10.0 mi NNE 4.6 mph - N/A   Scattered Clouds
10:58 AM 75.6 °F - 62.2 °F 63% 30.09 in 10.0 mi Variable 3.5 mph - N/A   Scattered Clouds
11:58 AM 75.9 °F - 63.1 °F 64% 30.10 in 10.0 mi NW 8.1 mph - N/A   Partly Cloudy
12:58 PM 77.7 °F - 62.6 °F 60% 30.09 in 10.0 mi Variable 5.8 mph - N/A   Partly Cloudy
1:58 PM 79.0 °F - 62.6 °F 57% 30.09 in 10.0 mi Variable 4.6 mph - N/A   Clear
2:58 PM 80.4 °F 81.7 °F 62.8 °F 55% 30.07 in 10.0 mi Variable 4.6 mph - N/A   Clear
3:58 PM 81.0 °F 82.6 °F 64.4 °F 57% 30.06 in 10.0 mi NNW 4.6 mph - N/A   Clear
4:58 PM 80.8 °F 82.4 °F 64.4 °F 57% 30.05 in 10.0 mi NNW 3.5 mph - N/A   Clear
5:58 PM 80.2 °F 81.8 °F 63.7 °F 57% 30.04 in 10.0 mi Variable 1.2 mph - N/A   Clear
6:58 PM 77.9 °F - 64.2 °F 63% 30.04 in 10.0 mi NW 2.3 mph - N/A   Clear
7:58 PM 72.7 °F - 66.9 °F 82% 30.05 in 10.0 mi Calm Calm - N/A   Partly Cloudy
8:58 PM 71.1 °F - 66.7 °F 86% 30.06 in 10.0 mi ESE 1.2 mph - N/A   Partly Cloudy
9:58 PM 70.0 °F - 65.5 °F 86% 30.07 in 10.0 mi Calm Calm - N/A   Clear
10:58 PM 71.1 °F - 65.5 °F 82% 30.07 in 10.0 mi SE 1.2 mph - N/A   Clear
11:58 PM 71.1 °F - 67.3 °F 88% 30.08 in 10.0 mi South 4.6 mph - N/A   Clear